Powrót do katalogu

STARLINK-5321

AktywnyŁącznośćVLEO
NORAD 55302·PAYLOAD·🇺🇸 United States

Wystrzelony Jan 19, 2023 z Vandenberg Space Force Base

Loading…

Następne Przeloty (najbliższe 24 godziny)

TLE

ŚwieżeSource: CelesTrak SupGP

Epoka: Sep 15, 2026, 02:16 UTC

1 55302C 23010AK  26258.09493056 -.00025434  00000+0 -21318-2 0  2584
2 55302  69.9999 266.8008 0003550 264.9917  53.7337 14.98335915    16

Śledź STARLINK-5321 w czasie rzeczywistym z AllMySat

Download on the App Store